Time,TemperatureF,DewpointF,PressureIn,WindDirection,WindDirectionDegrees,WindSpeedMPH,WindSpeedGustMPH,Humidity,HourlyPrecipIn,Conditions,Clouds,dailyrainin,SoftwareType,DateUTC
2013-03-30 00:00:00,54.6,43.1,30.26,NNE,28,0.0,0.0,65,0.00,,---,0.00,VWS V14.00,2013-03-30 04:00:00,
2013-03-30 00:01:00,54.5,43.0,30.26,NNE,28,0.0,0.0,65,0.00,,---,0.00,VWS V14.00,2013-03-30 04:01:00,
2013-03-30 00:06:00,54.2,43.1,30.26,NNE,28,0.0,0.0,66,0.00,,---,0.00,VWS V14.00,2013-03-30 04:06:00,
2013-03-30 00:11:00,53.8,43.1,30.26,NNE,28,0.0,0.0,67,0.00,,---,0.00,VWS V14.00,2013-03-30 04:11:00,
2013-03-30 00:17:00,53.7,42.6,30.26,NNE,28,0.0,0.0,66,0.00,,---,0.00,VWS V14.00,2013-03-30 04:17:00,
2013-03-30 00:22:00,53.6,42.5,30.26,NNE,28,0.0,0.0,66,0.00,,---,0.00,VWS V14.00,2013-03-30 04:22:00,
2013-03-30 00:27:00,53.5,42.4,30.27,NNE,28,0.0,0.0,66,0.00,,---,0.00,VWS V14.00,2013-03-30 04:27:00,
2013-03-30 00:30:00,53.3,42.2,30.26,NNE,28,0.0,0.0,66,0.00,,---,0.00,VWS V14.00,2013-03-30 04:30:00,
2013-03-30 00:33:00,53.2,42.2,30.26,NNE,28,0.0,0.0,66,0.00,,---,0.00,VWS V14.00,2013-03-30 04:33:00,
2013-03-30 00:38:00,53.0,42.3,30.26,NNE,28,0.0,0.0,67,0.00,,---,0.00,VWS V14.00,2013-03-30 04:38:00,
2013-03-30 00:43:00,52.7,42.1,30.26,NNE,28,0.0,0.0,67,0.00,,---,0.00,VWS V14.00,2013-03-30 04:43:00,
2013-03-30 00:48:00,52.4,41.8,30.26,NNE,28,0.0,0.0,67,0.00,,---,0.00,VWS V14.00,2013-03-30 04:48:00,
2013-03-30 00:53:00,52.1,41.9,30.27,NNE,28,0.0,0.0,68,0.00,,---,0.00,VWS V14.00,2013-03-30 04:53:00,
2013-03-30 00:58:00,51.9,42.1,30.26,NNE,28,0.0,0.0,69,0.00,,---,0.00,VWS V14.00,2013-03-30 04:58:00,
2013-03-30 01:00:00,51.8,42.0,30.26,NNE,28,0.0,0.0,69,0.00,,---,0.00,VWS V14.00,2013-03-30 05:00:00,
2013-03-30 01:03:00,51.7,41.9,30.26,NNE,28,0.0,0.0,69,0.00,,---,0.00,VWS V14.00,2013-03-30 05:03:00,
2013-03-30 01:09:00,51.4,42.0,30.26,NNE,28,0.0,0.0,70,0.00,,---,0.00,VWS V14.00,2013-03-30 05:09:00,
2013-03-30 01:14:00,51.1,41.7,30.26,NNE,28,0.0,0.0,70,0.00,,---,0.00,VWS V14.00,2013-03-30 05:14:00,
2013-03-30 01:19:00,50.8,41.4,30.26,NNE,28,0.0,0.0,70,0.00,,---,0.00,VWS V14.00,2013-03-30 05:19:00,
2013-03-30 01:24:00,50.5,41.1,30.26,NNE,28,0.0,0.0,70,0.00,,---,0.00,VWS V14.00,2013-03-30 05:24:00,
2013-03-30 01:29:00,50.2,41.2,30.26,NNE,28,0.0,0.0,71,0.00,,---,0.00,VWS V14.00,2013-03-30 05:29:00,
2013-03-30 01:30:00,50.0,41.0,30.26,NNE,28,0.0,0.0,71,0.00,,---,0.00,VWS V14.00,2013-03-30 05:30:00,
2013-03-30 01:34:00,49.8,41.2,30.26,NNE,28,0.0,0.0,72,0.00,,---,0.00,VWS V14.00,2013-03-30 05:34:00,
2013-03-30 01:39:00,49.6,41.0,30.26,NNE,28,0.0,0.0,72,0.00,,---,0.00,VWS V14.00,2013-03-30 05:39:00,
2013-03-30 01:44:00,49.3,41.0,30.26,NNE,28,0.0,0.0,73,0.00,,---,0.00,VWS V14.00,2013-03-30 05:44:00,
2013-03-30 01:49:00,49.1,40.8,30.26,NNE,28,0.0,0.0,73,0.00,,---,0.00,VWS V14.00,2013-03-30 05:49:00,
2013-03-30 01:55:00,48.9,41.0,30.26,NNE,28,0.0,0.0,74,0.00,,---,0.00,VWS V14.00,2013-03-30 05:55:00,
2013-03-30 02:00:00,48.6,40.7,30.26,NNE,28,0.0,0.0,74,0.00,,---,0.00,VWS V14.00,2013-03-30 06:00:00,
2013-03-30 02:05:00,48.5,41.0,30.26,NNE,28,0.0,0.0,75,0.00,,---,0.00,VWS V14.00,2013-03-30 06:05:00,
2013-03-30 02:10:00,48.5,41.3,30.26,NNE,28,0.0,0.0,76,0.00,,---,0.00,VWS V14.00,2013-03-30 06:10:00,
2013-03-30 02:15:00,48.3,41.1,30.26,NNE,28,0.0,0.0,76,0.00,,---,0.00,VWS V14.00,2013-03-30 06:15:00,
2013-03-30 02:20:00,48.2,41.3,30.26,NNE,28,0.0,0.0,77,0.00,,---,0.00,VWS V14.00,2013-03-30 06:20:00,
2013-03-30 02:25:00,47.9,41.0,30.26,NNE,28,0.0,0.0,77,0.00,,---,0.00,VWS V14.00,2013-03-30 06:25:00,
2013-03-30 02:30:00,47.8,41.3,30.26,NNE,28,0.0,0.0,78,0.00,,---,0.00,VWS V14.00,2013-03-30 06:30:00,
2013-03-30 02:36:00,47.6,41.1,30.26,NNE,28,0.0,0.0,78,0.00,,---,0.00,VWS V14.00,2013-03-30 06:36:00,
2013-03-30 02:41:00,47.5,41.0,30.26,NNE,28,0.0,0.0,78,0.00,,---,0.00,VWS V14.00,2013-03-30 06:41:00,
2013-03-30 02:46:00,47.3,41.1,30.26,NNE,28,0.0,0.0,79,0.00,,---,0.00,VWS V14.00,2013-03-30 06:46:00,
2013-03-30 02:51:00,47.2,41.0,30.26,NNE,28,0.0,0.0,79,0.00,,---,0.00,VWS V14.00,2013-03-30 06:51:00,
2013-03-30 02:57:00,47.0,40.8,30.26,NNE,28,0.0,0.0,79,0.00,,---,0.00,VWS V14.00,2013-03-30 06:57:00,
2013-03-30 03:00:00,46.9,40.7,30.25,NNE,28,0.0,0.0,79,0.00,,---,0.00,VWS V14.00,2013-03-30 07:00:00,
2013-03-30 03:02:00,46.9,41.1,30.25,NNE,28,0.0,0.0,80,0.00,,---,0.00,VWS V14.00,2013-03-30 07:02:00,
2013-03-30 03:07:00,46.8,41.0,30.25,NNE,28,0.0,0.0,80,0.00,,---,0.00,VWS V14.00,2013-03-30 07:07:00,
2013-03-30 03:12:00,46.7,41.2,30.25,NNE,28,0.0,0.0,81,0.00,,---,0.00,VWS V14.00,2013-03-30 07:12:00,
2013-03-30 03:17:00,46.7,41.2,30.25,NNE,28,0.0,0.0,81,0.00,,---,0.00,VWS V14.00,2013-03-30 07:17:00,
2013-03-30 03:22:00,46.7,41.2,30.24,NNE,28,0.0,0.0,81,0.00,,---,0.00,VWS V14.00,2013-03-30 07:22:00,
2013-03-30 03:27:00,46.6,41.4,30.25,NNE,28,0.0,0.0,82,0.00,,---,0.00,VWS V14.00,2013-03-30 07:27:00,
2013-03-30 03:30:00,46.5,41.3,30.24,NNE,28,0.0,0.0,82,0.00,,---,0.00,VWS V14.00,2013-03-30 07:30:00,
2013-03-30 03:32:00,46.4,41.2,30.25,NNE,28,0.0,0.0,82,0.00,,---,0.00,VWS V14.00,2013-03-30 07:32:00,
2013-03-30 03:37:00,46.3,41.1,30.24,NNE,28,0.0,0.0,82,0.00,,---,0.00,VWS V14.00,2013-03-30 07:37:00,
2013-03-30 03:42:00,46.1,40.9,30.24,NNE,28,0.0,0.0,82,0.00,,---,0.00,VWS V14.00,2013-03-30 07:42:00,
2013-03-30 03:47:00,46.0,40.8,30.24,NNE,28,0.0,0.0,82,0.00,,---,0.00,VWS V14.00,2013-03-30 07:47:00,
2013-03-30 03:53:00,45.8,40.9,30.24,NNE,28,0.0,0.0,83,0.00,,---,0.00,VWS V14.00,2013-03-30 07:53:00,
2013-03-30 03:58:00,45.7,40.8,30.24,NNE,28,0.0,0.0,83,0.00,,---,0.00,VWS V14.00,2013-03-30 07:58:00,
2013-03-30 04:00:00,45.6,40.7,30.24,NNE,28,0.0,0.0,83,0.00,,---,0.00,VWS V14.00,2013-03-30 08:00:00,
2013-03-30 04:03:00,45.6,40.7,30.24,NNE,28,0.0,0.0,83,0.00,,---,0.00,VWS V14.00,2013-03-30 08:03:00,
2013-03-30 04:08:00,45.6,41.0,30.24,NNE,28,0.0,0.0,84,0.00,,---,0.00,VWS V14.00,2013-03-30 08:08:00,
2013-03-30 04:13:00,45.7,41.2,30.24,NNE,28,0.0,0.0,84,0.00,,---,0.00,VWS V14.00,2013-03-30 08:13:00,
2013-03-30 04:18:00,45.8,41.5,30.24,NNE,28,0.0,0.0,85,0.00,,---,0.00,VWS V14.00,2013-03-30 08:18:00,
2013-03-30 04:24:00,45.8,41.2,30.24,NNE,28,0.0,0.0,84,0.00,,---,0.00,VWS V14.00,2013-03-30 08:24:00,
2013-03-30 04:29:00,45.7,41.2,30.24,NNE,28,0.0,0.0,84,0.00,,---,0.00,VWS V14.00,2013-03-30 08:29:00,
2013-03-30 04:30:00,45.7,41.2,30.24,NNE,28,0.0,0.0,84,0.00,,---,0.00,VWS V14.00,2013-03-30 08:30:00,
2013-03-30 04:34:00,45.7,41.5,30.24,NNE,28,0.0,0.0,85,0.00,,---,0.00,VWS V14.00,2013-03-30 08:34:00,
2013-03-30 04:39:00,45.6,41.0,30.24,NNE,28,0.0,0.0,84,0.00,,---,0.00,VWS V14.00,2013-03-30 08:39:00,
2013-03-30 04:44:00,45.6,41.4,30.24,NNE,28,0.0,0.0,85,0.00,,---,0.00,VWS V14.00,2013-03-30 08:44:00,
2013-03-30 04:49:00,45.5,41.3,30.24,NNE,28,0.0,0.0,85,0.00,,---,0.00,VWS V14.00,2013-03-30 08:49:00,
2013-03-30 04:54:00,45.5,41.3,30.23,NNE,28,0.0,0.0,85,0.00,,---,0.00,VWS V14.00,2013-03-30 08:54:00,
2013-03-30 05:00:00,45.4,41.2,30.23,NNE,28,0.0,0.0,85,0.00,,---,0.00,VWS V14.00,2013-03-30 09:00:00,
2013-03-30 05:05:00,45.3,41.4,30.23,NNE,28,0.0,0.0,86,0.00,,---,0.00,VWS V14.00,2013-03-30 09:05:00,
2013-03-30 05:10:00,45.2,41.3,30.23,NNE,28,0.0,0.0,86,0.00,,---,0.00,VWS V14.00,2013-03-30 09:10:00,
2013-03-30 05:15:00,45.1,41.2,30.23,NNE,28,0.0,0.0,86,0.00,,---,0.00,VWS V14.00,2013-03-30 09:15:00,
2013-03-30 05:20:00,45.0,41.1,30.24,NNE,28,0.0,0.0,86,0.00,,---,0.00,VWS V14.00,2013-03-30 09:20:00,
2013-03-30 05:26:00,45.0,41.1,30.23,NNE,28,0.0,0.0,86,0.00,,---,0.00,VWS V14.00,2013-03-30 09:26:00,
2013-03-30 05:30:00,44.9,41.3,30.23,NNE,28,0.0,0.0,87,0.00,,---,0.00,VWS V14.00,2013-03-30 09:30:00,
2013-03-30 05:31:00,44.9,41.3,30.23,NNE,28,0.0,0.0,87,0.00,,---,0.00,VWS V14.00,2013-03-30 09:31:00,
2013-03-30 05:35:00,44.9,41.3,30.23,NNE,28,0.0,0.0,87,0.00,,---,0.00,VWS V14.00,2013-03-30 09:35:00,
2013-03-30 05:40:00,44.9,41.3,30.23,NNE,28,0.0,0.0,87,0.00,,---,0.00,VWS V14.00,2013-03-30 09:40:00,
2013-03-30 05:45:00,44.8,41.2,30.23,NNE,28,0.0,0.0,87,0.00,,---,0.00,VWS V14.00,2013-03-30 09:45:00,
2013-03-30 05:50:00,44.9,41.3,30.23,NNE,28,0.0,0.0,87,0.00,,---,0.00,VWS V14.00,2013-03-30 09:50:00,
2013-03-30 05:56:00,44.9,41.3,30.22,NNE,28,0.0,0.0,87,0.00,,---,0.00,VWS V14.00,2013-03-30 09:56:00,
2013-03-30 06:00:00,44.8,41.5,30.22,NNE,28,0.0,0.0,88,0.00,,---,0.00,VWS V14.00,2013-03-30 10:00:00,
2013-03-30 06:01:00,44.8,41.5,30.22,NNE,28,0.0,0.0,88,0.00,,---,0.00,VWS V14.00,2013-03-30 10:01:00,
2013-03-30 06:06:00,44.7,41.4,30.22,NNE,28,0.0,0.0,88,0.00,,---,0.00,VWS V14.00,2013-03-30 10:06:00,
2013-03-30 06:11:00,44.5,41.2,30.23,NNE,28,0.0,0.0,88,0.00,,---,0.00,VWS V14.00,2013-03-30 10:11:00,
2013-03-30 06:17:00,44.3,40.7,30.22,NNE,28,0.0,0.0,87,0.00,,---,0.00,VWS V14.00,2013-03-30 10:17:00,
2013-03-30 06:22:00,44.1,40.5,30.23,NNE,28,0.0,0.0,87,0.00,,---,0.00,VWS V14.00,2013-03-30 10:22:00,
2013-03-30 06:27:00,44.0,40.7,30.23,NNE,28,0.0,0.0,88,0.00,,---,0.00,VWS V14.00,2013-03-30 10:27:00,
2013-03-30 06:30:00,44.1,40.8,30.23,NNE,28,0.0,0.0,88,0.00,,---,0.00,VWS V14.00,2013-03-30 10:30:00,
2013-03-30 06:32:00,44.1,40.8,30.23,NNE,28,0.0,0.0,88,0.00,,---,0.00,VWS V14.00,2013-03-30 10:32:00,
2013-03-30 06:37:00,44.0,40.7,30.23,NNE,28,0.0,0.0,88,0.00,,---,0.00,VWS V14.00,2013-03-30 10:37:00,
2013-03-30 06:42:00,43.9,40.9,30.23,NNE,28,0.0,0.0,89,0.00,,---,0.00,VWS V14.00,2013-03-30 10:42:00,
2013-03-30 06:48:00,44.1,41.1,30.23,NNE,28,0.0,0.0,89,0.00,,---,0.00,VWS V14.00,2013-03-30 10:48:00,
2013-03-30 06:53:00,44.1,41.1,30.23,NNE,28,0.0,0.0,89,0.00,,---,0.00,VWS V14.00,2013-03-30 10:53:00,
2013-03-30 06:58:00,44.2,41.2,30.23,NNE,28,0.0,0.0,89,0.00,,---,0.00,VWS V14.00,2013-03-30 10:58:00,
2013-03-30 07:00:00,44.2,41.2,30.24,NNE,28,0.0,0.0,89,0.00,,---,0.00,VWS V14.00,2013-03-30 11:00:00,
2013-03-30 07:03:00,44.2,41.2,30.24,NNE,28,0.0,0.0,89,0.00,,---,0.00,VWS V14.00,2013-03-30 11:03:00,
2013-03-30 07:08:00,44.1,41.1,30.24,NNE,28,0.0,0.0,89,0.00,,---,0.00,VWS V14.00,2013-03-30 11:08:00,
2013-03-30 07:14:00,44.1,41.4,30.24,NNE,28,0.0,0.0,90,0.00,,---,0.00,VWS V14.00,2013-03-30 11:14:00,
2013-03-30 07:19:00,44.1,41.4,30.25,NNE,28,0.0,0.0,90,0.00,,---,0.00,VWS V14.00,2013-03-30 11:19:00,
2013-03-30 07:24:00,44.1,41.4,30.25,NNE,28,0.0,0.0,90,0.00,,---,0.00,VWS V14.00,2013-03-30 11:24:00,
2013-03-30 07:29:00,44.1,41.4,30.25,NNE,28,0.0,0.0,90,0.00,,---,0.00,VWS V14.00,2013-03-30 11:29:00,
2013-03-30 07:30:00,44.1,41.4,30.25,NNE,28,0.0,0.0,90,0.00,,---,0.00,VWS V14.00,2013-03-30 11:30:00,
2013-03-30 07:34:00,44.1,41.4,30.25,NNE,28,0.0,0.0,90,0.00,,---,0.00,VWS V14.00,2013-03-30 11:34:00,
2013-03-30 07:40:00,44.1,41.4,30.25,NNE,28,0.0,0.0,90,0.00,,---,0.00,VWS V14.00,2013-03-30 11:40:00,
2013-03-30 07:45:00,44.1,41.4,30.26,NNE,28,0.0,0.0,90,0.00,,---,0.00,VWS V14.00,2013-03-30 11:45:00,
2013-03-30 07:50:00,44.1,41.4,30.26,NNE,28,0.0,0.0,90,0.00,,---,0.00,VWS V14.00,2013-03-30 11:50:00,
2013-03-30 07:55:00,44.3,41.6,30.26,NNE,28,0.0,0.0,90,0.00,,---,0.00,VWS V14.00,2013-03-30 11:55:00,
2013-03-30 08:00:00,44.3,41.6,30.26,NNE,28,0.0,0.0,90,0.00,,---,0.00,VWS V14.00,2013-03-30 12:00:00,
2013-03-30 08:05:00,44.5,41.8,30.26,NNE,28,0.0,0.0,90,0.00,,---,0.00,VWS V14.00,2013-03-30 12:05:00,
2013-03-30 08:10:00,44.7,42.0,30.26,NNE,28,0.0,0.0,90,0.00,,---,0.00,VWS V14.00,2013-03-30 12:10:00,
2013-03-30 08:15:00,45.0,42.2,30.27,NNE,28,0.0,0.0,90,0.00,,---,0.00,VWS V14.00,2013-03-30 12:15:00,
2013-03-30 08:20:00,45.2,42.7,30.27,NNE,28,0.0,0.0,91,0.00,,---,0.00,VWS V14.00,2013-03-30 12:20:00,
2013-03-30 08:26:00,45.9,43.4,30.27,NNE,28,0.0,0.0,91,0.00,,---,0.00,VWS V14.00,2013-03-30 12:26:00,
2013-03-30 08:30:00,46.6,44.1,30.27,NNE,28,0.0,0.0,91,0.00,,---,0.00,VWS V14.00,2013-03-30 12:30:00,
2013-03-30 08:31:00,46.5,44.0,30.27,NNE,28,0.0,0.0,91,0.00,,---,0.00,VWS V14.00,2013-03-30 12:31:00,
2013-03-30 08:36:00,47.4,44.9,30.27,NNE,28,0.0,0.0,91,0.00,,---,0.00,VWS V14.00,2013-03-30 12:36:00,
2013-03-30 08:41:00,48.1,45.3,30.27,NNE,28,0.0,0.0,90,0.00,,---,0.00,VWS V14.00,2013-03-30 12:41:00,
2013-03-30 08:47:00,49.0,46.2,30.27,NNE,28,0.0,0.0,90,0.00,,---,0.00,VWS V14.00,2013-03-30 12:47:00,
2013-03-30 08:52:00,49.6,46.5,30.27,NNE,28,0.0,0.0,89,0.00,,---,0.00,VWS V14.00,2013-03-30 12:52:00,
2013-03-30 08:57:00,50.6,47.2,30.27,NNE,28,0.0,0.0,88,0.00,,---,0.00,VWS V14.00,2013-03-30 12:57:00,
2013-03-30 09:00:00,51.8,47.8,30.27,NNE,28,0.0,0.0,86,0.00,,---,0.00,VWS V14.00,2013-03-30 13:00:00,
2013-03-30 09:02:00,52.1,48.0,30.27,NNE,28,0.0,0.0,86,0.00,,---,0.00,VWS V14.00,2013-03-30 13:02:00,
2013-03-30 09:07:00,53.7,48.7,30.27,NNE,28,0.0,1.0,83,0.00,,---,0.00,VWS V14.00,2013-03-30 13:07:00,
2013-03-30 09:12:00,55.1,49.4,30.27,NNE,28,0.0,1.0,81,0.00,,---,0.00,VWS V14.00,2013-03-30 13:12:00,
2013-03-30 09:17:00,56.2,49.4,30.27,NNE,28,0.0,1.0,78,0.00,,---,0.00,VWS V14.00,2013-03-30 13:17:00,
2013-03-30 09:23:00,57.3,49.8,30.28,NNE,28,0.0,1.0,76,0.00,,---,0.00,VWS V14.00,2013-03-30 13:23:00,
2013-03-30 09:28:00,58.5,50.2,30.28,NNE,28,0.0,1.0,74,0.00,,---,0.00,VWS V14.00,2013-03-30 13:28:00,
2013-03-30 09:30:00,59.0,50.4,30.28,NNE,28,0.0,1.0,73,0.00,,---,0.00,VWS V14.00,2013-03-30 13:30:00,
2013-03-30 09:33:00,59.5,50.8,30.27,NNE,28,0.0,0.0,73,0.00,,---,0.00,VWS V14.00,2013-03-30 13:33:00,
2013-03-30 09:38:00,60.3,51.2,30.27,NNE,28,0.0,0.0,72,0.00,,---,0.00,VWS V14.00,2013-03-30 13:38:00,
2013-03-30 09:44:00,61.3,51.5,30.27,South,187,2.0,4.0,70,0.00,,---,0.00,VWS V14.00,2013-03-30 13:44:00,
2013-03-30 09:49:00,62.2,51.9,30.27,SSW,198,0.0,4.0,69,0.00,,---,0.00,VWS V14.00,2013-03-30 13:49:00,
2013-03-30 09:54:00,62.9,52.2,30.27,WSW,242,0.0,5.0,68,0.00,,---,0.00,VWS V14.00,2013-03-30 13:54:00,
2013-03-30 09:59:00,63.5,52.0,30.27,SW,217,0.0,5.0,66,0.00,,---,0.00,VWS V14.00,2013-03-30 13:59:00,
2013-03-30 10:00:00,63.7,52.1,30.27,South,186,0.0,5.0,66,0.00,,---,0.00,VWS V14.00,2013-03-30 14:00:00,
2013-03-30 10:04:00,64.0,52.0,30.27,WSW,237,0.0,3.0,65,0.00,,---,0.00,VWS V14.00,2013-03-30 14:04:00,
2013-03-30 10:09:00,64.6,52.6,30.27,SW,232,0.0,3.0,65,0.00,,---,0.00,VWS V14.00,2013-03-30 14:09:00,
2013-03-30 10:14:00,65.1,53.1,30.27,SSW,207,0.0,5.0,65,0.00,,---,0.00,VWS V14.00,2013-03-30 14:14:00,
2013-03-30 10:19:00,65.6,52.7,30.27,SSW,204,0.0,5.0,63,0.00,,---,0.00,VWS V14.00,2013-03-30 14:19:00,
2013-03-30 10:24:00,66.1,52.7,30.27,SW,219,0.0,5.0,62,0.00,,---,0.00,VWS V14.00,2013-03-30 14:24:00,
2013-03-30 10:30:00,66.6,53.2,30.27,SSE,159,0.0,5.0,62,0.00,,---,0.00,VWS V14.00,2013-03-30 14:30:00,
2013-03-30 10:35:00,67.0,53.1,30.26,SW,218,0.0,5.0,61,0.00,,---,0.00,VWS V14.00,2013-03-30 14:35:00,
2013-03-30 10:40:00,67.2,52.9,30.26,SSE,153,0.0,7.0,60,0.00,,---,0.00,VWS V14.00,2013-03-30 14:40:00,
2013-03-30 10:45:00,67.5,52.7,30.27,SSW,200,3.0,10.0,59,0.00,,---,0.00,VWS V14.00,2013-03-30 14:45:00,
2013-03-30 10:50:00,67.7,52.4,30.26,SW,236,3.0,10.0,58,0.00,,---,0.00,VWS V14.00,2013-03-30 14:50:00,
2013-03-30 10:57:00,68.0,52.2,30.26,South,180,0.0,10.0,57,0.00,,---,0.00,VWS V14.00,2013-03-30 14:57:00,
2013-03-30 11:00:00,68.1,52.3,30.26,SW,217,0.0,10.0,57,0.00,,---,0.00,VWS V14.00,2013-03-30 15:00:00,
2013-03-30 11:02:00,68.2,52.4,30.26,SSW,202,0.0,0.0,57,0.00,,---,0.00,VWS V14.00,2013-03-30 15:02:00,
2013-03-30 11:07:00,68.4,51.6,30.26,SW,223,0.0,11.0,55,0.00,,---,0.00,VWS V14.00,2013-03-30 15:07:00,
2013-03-30 11:12:00,68.8,52.5,30.25,SW,231,0.0,11.0,56,0.00,,---,0.00,VWS V14.00,2013-03-30 15:12:00,
2013-03-30 11:18:00,69.4,53.0,30.25,South,180,0.0,11.0,56,0.00,,---,0.00,VWS V14.00,2013-03-30 15:18:00,
2013-03-30 11:23:00,69.7,52.3,30.26,SE,134,0.0,11.0,54,0.00,,---,0.00,VWS V14.00,2013-03-30 15:23:00,
2013-03-30 11:28:00,69.8,51.9,30.25,WSW,237,2.0,11.0,53,0.00,,---,0.00,VWS V14.00,2013-03-30 15:28:00,
2013-03-30 11:30:00,69.8,51.4,30.25,South,183,6.0,11.0,52,0.00,,---,0.00,VWS V14.00,2013-03-30 15:30:00,
2013-03-30 11:33:00,69.9,51.5,30.25,WSW,238,0.0,6.0,52,0.00,,---,0.00,VWS V14.00,2013-03-30 15:33:00,
2013-03-30 11:38:00,70.3,51.3,30.25,South,188,0.0,6.0,51,0.00,,---,0.00,VWS V14.00,2013-03-30 15:38:00,
2013-03-30 11:44:00,70.8,50.2,30.25,South,189,0.0,6.0,48,0.00,,---,0.00,VWS V14.00,2013-03-30 15:44:00,
2013-03-30 11:49:00,71.1,49.3,30.25,SW,226,0.0,6.0,46,0.00,,---,0.00,VWS V14.00,2013-03-30 15:49:00,
2013-03-30 11:54:00,71.2,51.1,30.25,South,190,5.0,6.0,49,0.00,,---,0.00,VWS V14.00,2013-03-30 15:54:00,
2013-03-30 11:59:00,71.6,51.5,30.25,SW,227,0.0,6.0,49,0.00,,---,0.00,VWS V14.00,2013-03-30 15:59:00,
2013-03-30 12:00:00,72.0,51.3,30.25,South,178,0.0,6.0,48,0.00,,---,0.00,VWS V14.00,2013-03-30 16:00:00,
2013-03-30 12:04:00,72.4,51.6,30.25,SW,223,0.0,4.0,48,0.00,,---,0.00,VWS V14.00,2013-03-30 16:04:00,
2013-03-30 12:10:00,72.5,50.6,30.25,West,259,0.0,7.0,46,0.00,,---,0.00,VWS V14.00,2013-03-30 16:10:00,
2013-03-30 12:15:00,72.8,50.8,30.25,SSE,155,0.0,7.0,46,0.00,,---,0.00,VWS V14.00,2013-03-30 16:15:00,
2013-03-30 12:20:00,73.1,49.9,30.24,WSW,244,0.0,7.0,44,0.00,,---,0.00,VWS V14.00,2013-03-30 16:20:00,
2013-03-30 12:25:00,73.0,49.2,30.24,South,176,4.0,7.0,43,0.00,,---,0.00,VWS V14.00,2013-03-30 16:25:00,
2013-03-30 12:30:00,73.6,49.8,30.24,SW,217,0.0,7.0,43,0.00,,---,0.00,VWS V14.00,2013-03-30 16:30:00,
2013-03-30 12:35:00,74.1,50.2,30.24,ESE,112,0.0,3.0,43,0.00,,---,0.00,VWS V14.00,2013-03-30 16:35:00,
2013-03-30 12:40:00,74.3,51.0,30.24,SW,221,0.0,4.0,44,0.00,,---,0.00,VWS V14.00,2013-03-30 16:40:00,
2013-03-30 12:46:00,74.9,50.3,30.24,SSW,196,0.0,7.0,42,0.00,,---,0.00,VWS V14.00,2013-03-30 16:46:00,
2013-03-30 12:52:00,75.3,49.3,30.24,SSW,208,1.0,7.0,40,0.00,,---,0.00,VWS V14.00,2013-03-30 16:52:00,
2013-03-30 12:57:00,75.3,48.7,30.23,SSW,203,0.0,7.0,39,0.00,,---,0.00,VWS V14.00,2013-03-30 16:57:00,
2013-03-30 13:00:00,75.6,49.6,30.23,South,186,0.0,7.0,40,0.00,,---,0.00,VWS V14.00,2013-03-30 17:00:00,
2013-03-30 13:02:00,75.6,49.6,30.23,East,98,0.0,1.0,40,0.00,,---,0.00,VWS V14.00,2013-03-30 17:02:00,
2013-03-30 13:07:00,75.7,47.6,30.22,SSW,195,0.0,7.0,37,0.00,,---,0.00,VWS V14.00,2013-03-30 17:07:00,
2013-03-30 13:12:00,75.5,46.7,30.22,SE,140,0.0,7.0,36,0.00,,---,0.00,VWS V14.00,2013-03-30 17:12:00,
2013-03-30 13:17:00,75.3,48.7,30.22,SSW,206,0.0,7.0,39,0.00,,---,0.00,VWS V14.00,2013-03-30 17:17:00,
2013-03-30 13:22:00,75.3,48.0,30.22,SW,215,0.0,7.0,38,0.00,,---,0.00,VWS V14.00,2013-03-30 17:22:00,
2013-03-30 13:28:00,75.5,48.1,30.22,SW,233,0.0,7.0,38,0.00,,---,0.00,VWS V14.00,2013-03-30 17:28:00,
2013-03-30 13:30:00,75.7,49.0,30.21,SSW,197,1.0,9.0,39,0.00,,---,0.00,VWS V14.00,2013-03-30 17:30:00,
2013-03-30 13:33:00,75.7,49.7,30.21,SW,235,3.0,3.0,40,0.00,,---,0.00,VWS V14.00,2013-03-30 17:33:00,
2013-03-30 13:38:00,75.5,49.5,30.21,South,174,0.0,4.0,40,0.00,,---,0.00,VWS V14.00,2013-03-30 17:38:00,
2013-03-30 13:43:00,76.4,50.3,30.21,South,177,0.0,7.0,40,0.00,,---,0.00,VWS V14.00,2013-03-30 17:43:00,
2013-03-30 13:48:00,76.7,49.2,30.20,SSW,205,0.0,7.0,38,0.00,,---,0.00,VWS V14.00,2013-03-30 17:48:00,
2013-03-30 13:54:00,76.4,48.9,30.20,NNE,22,0.0,7.0,38,0.00,,---,0.00,VWS V14.00,2013-03-30 17:54:00,
2013-03-30 13:59:00,76.8,50.0,30.20,West,263,0.0,7.0,39,0.00,,---,0.00,VWS V14.00,2013-03-30 17:59:00,
2013-03-30 14:00:00,77.2,50.3,30.20,SW,234,0.0,7.0,39,0.00,,---,0.00,VWS V14.00,2013-03-30 18:00:00,
2013-03-30 14:04:00,77.5,49.9,30.20,SSW,207,1.0,7.0,38,0.00,,---,0.00,VWS V14.00,2013-03-30 18:04:00,
2013-03-30 14:09:00,77.1,48.8,30.20,SW,218,0.0,7.0,37,0.00,,---,0.00,VWS V14.00,2013-03-30 18:09:00,
2013-03-30 14:14:00,76.5,49.0,30.19,SSW,198,0.0,7.0,38,0.00,,---,0.00,VWS V14.00,2013-03-30 18:14:00,
2013-03-30 14:20:00,76.3,49.5,30.19,SW,229,0.0,7.0,39,0.00,,---,0.00,VWS V14.00,2013-03-30 18:20:00,
2013-03-30 14:25:00,76.4,48.9,30.19,South,176,0.0,7.0,38,0.00,,---,0.00,VWS V14.00,2013-03-30 18:25:00,
2013-03-30 14:30:00,77.1,49.6,30.18,SE,140,0.0,7.0,38,0.00,,---,0.00,VWS V14.00,2013-03-30 18:30:00,
2013-03-30 14:35:00,77.9,48.8,30.18,South,187,0.0,3.0,36,0.00,,---,0.00,VWS V14.00,2013-03-30 18:35:00,
2013-03-30 14:40:00,78.2,49.1,30.18,SW,214,0.0,9.0,36,0.00,,---,0.00,VWS V14.00,2013-03-30 18:40:00,
2013-03-30 14:45:00,78.3,49.9,30.18,SSW,202,0.0,9.0,37,0.00,,---,0.00,VWS V14.00,2013-03-30 18:45:00,
2013-03-30 14:50:00,78.1,49.7,30.17,SW,227,0.0,9.0,37,0.00,,---,0.00,VWS V14.00,2013-03-30 18:50:00,
2013-03-30 14:56:00,76.9,49.4,30.17,SE,138,0.0,9.0,38,0.00,,---,0.00,VWS V14.00,2013-03-30 18:56:00,
2013-03-30 15:00:00,76.2,49.5,30.17,SW,232,8.0,9.0,39,0.00,,---,0.00,VWS V14.00,2013-03-30 19:00:00,
2013-03-30 15:01:00,76.2,49.5,30.17,SSW,211,2.0,9.0,39,0.00,,---,0.00,VWS V14.00,2013-03-30 19:01:00,
2013-03-30 15:06:00,77.0,48.8,30.17,WSW,256,0.0,11.0,37,0.00,,---,0.00,VWS V14.00,2013-03-30 19:06:00,
2013-03-30 15:11:00,77.4,49.8,30.16,SSE,155,0.0,11.0,38,0.00,,---,0.00,VWS V14.00,2013-03-30 19:11:00,
2013-03-30 15:17:00,78.2,49.1,30.16,WSW,245,5.0,11.0,36,0.00,,---,0.00,VWS V14.00,2013-03-30 19:17:00,
2013-03-30 15:22:00,79.0,49.0,30.16,South,171,0.0,11.0,35,0.00,,---,0.00,VWS V14.00,2013-03-30 19:22:00,
2013-03-30 15:27:00,79.8,49.0,30.16,WSW,250,9.0,11.0,34,0.00,,---,0.00,VWS V14.00,2013-03-30 19:27:00,
2013-03-30 15:30:00,80.0,49.1,30.16,SSW,194,0.0,11.0,34,0.00,,---,0.00,VWS V14.00,2013-03-30 19:30:00,
2013-03-30 15:32:00,80.0,49.1,30.15,South,187,0.0,0.0,34,0.00,,---,0.00,VWS V14.00,2013-03-30 19:32:00,
2013-03-30 15:37:00,80.3,48.6,30.16,SSW,193,5.0,8.0,33,0.00,,---,0.00,VWS V14.00,2013-03-30 19:37:00,
2013-03-30 15:43:00,79.7,48.1,30.15,South,187,0.0,10.0,33,0.00,,---,0.00,VWS V14.00,2013-03-30 19:43:00,
2013-03-30 15:48:00,79.5,47.9,30.15,South,178,2.0,10.0,33,0.00,,---,0.00,VWS V14.00,2013-03-30 19:48:00,
2013-03-30 15:53:00,78.9,48.2,30.15,West,277,0.0,10.0,34,0.00,,---,0.00,VWS V14.00,2013-03-30 19:53:00,
2013-03-30 15:58:00,78.7,48.8,30.14,WSW,249,0.0,10.0,35,0.00,,---,0.00,VWS V14.00,2013-03-30 19:58:00,
2013-03-30 16:00:00,78.5,47.8,30.14,South,187,0.0,10.0,34,0.00,,---,0.00,VWS V14.00,2013-03-30 20:00:00,
2013-03-30 16:03:00,78.5,48.6,30.14,SW,222,0.0,4.0,35,0.00,,---,0.00,VWS V14.00,2013-03-30 20:03:00,
2013-03-30 16:09:00,79.0,49.0,30.14,SW,221,1.0,4.0,35,0.00,,---,0.00,VWS V14.00,2013-03-30 20:09:00,
2013-03-30 16:14:00,78.8,48.9,30.14,South,171,0.0,5.0,35,0.00,,---,0.00,VWS V14.00,2013-03-30 20:14:00,
2013-03-30 16:19:00,78.2,49.1,30.13,SW,214,0.0,5.0,36,0.00,,---,0.00,VWS V14.00,2013-03-30 20:19:00,
2013-03-30 16:24:00,77.9,48.8,30.13,SW,219,0.0,5.0,36,0.00,,---,0.00,VWS V14.00,2013-03-30 20:24:00,
2013-03-30 16:29:00,78.3,48.4,30.13,WSW,247,0.0,9.0,35,0.00,,---,0.00,VWS V14.00,2013-03-30 20:29:00,
2013-03-30 16:30:00,78.5,49.3,30.13,SW,223,0.0,9.0,36,0.00,,---,0.00,VWS V14.00,2013-03-30 20:30:00,
2013-03-30 16:35:00,78.8,48.9,30.13,SSW,209,0.0,6.0,35,0.00,,---,0.00,VWS V14.00,2013-03-30 20:35:00,
2013-03-30 16:40:00,79.3,49.3,30.13,SW,220,5.0,6.0,35,0.00,,---,0.00,VWS V14.00,2013-03-30 20:40:00,
2013-03-30 16:45:00,79.6,49.6,30.13,WSW,251,2.0,6.0,35,0.00,,---,0.00,VWS V14.00,2013-03-30 20:45:00,
2013-03-30 16:50:00,79.5,49.5,30.13,WSW,252,4.0,6.0,35,0.00,,---,0.00,VWS V14.00,2013-03-30 20:50:00,
2013-03-30 16:55:00,79.3,49.3,30.12,WSW,242,0.0,6.0,35,0.00,,---,0.00,VWS V14.00,2013-03-30 20:55:00,
2013-03-30 17:00:00,78.9,49.0,30.12,West,261,0.0,6.0,35,0.00,,---,0.00,VWS V14.00,2013-03-30 21:00:00,
2013-03-30 17:06:00,78.3,49.2,30.12,WSW,250,0.0,0.0,36,0.00,,---,0.00,VWS V14.00,2013-03-30 21:06:00,
2013-03-30 17:11:00,78.3,49.9,30.12,South,187,2.0,5.0,37,0.00,,---,0.00,VWS V14.00,2013-03-30 21:11:00,
2013-03-30 17:17:00,78.7,49.5,30.12,WSW,252,0.0,5.0,36,0.00,,---,0.00,VWS V14.00,2013-03-30 21:17:00,
2013-03-30 17:22:00,78.9,49.0,30.12,West,267,1.0,10.0,35,0.00,,---,0.00,VWS V14.00,2013-03-30 21:22:00,
2013-03-30 17:28:00,78.2,49.1,30.12,SW,215,0.0,10.0,36,0.00,,---,0.00,VWS V14.00,2013-03-30 21:28:00,
2013-03-30 17:30:00,77.8,49.5,30.12,SW,224,0.0,10.0,37,0.00,,---,0.00,VWS V14.00,2013-03-30 21:30:00,
2013-03-30 17:33:00,77.6,48.6,30.12,SW,229,0.0,2.0,36,0.00,,---,0.00,VWS V14.00,2013-03-30 21:33:00,
2013-03-30 17:38:00,77.5,49.2,30.12,WSW,252,0.0,3.0,37,0.00,,---,0.00,VWS V14.00,2013-03-30 21:38:00,
2013-03-30 17:44:00,78.0,50.4,30.12,SSE,168,0.0,3.0,38,0.00,,---,0.00,VWS V14.00,2013-03-30 21:44:00,
2013-03-30 17:49:00,78.1,49.0,30.11,South,180,4.0,11.0,36,0.00,,---,0.00,VWS V14.00,2013-03-30 21:49:00,
2013-03-30 17:54:00,77.6,49.3,30.12,SW,215,0.0,11.0,37,0.00,,---,0.00,VWS V14.00,2013-03-30 21:54:00,
2013-03-30 17:59:00,77.2,49.7,30.11,South,186,0.0,11.0,38,0.00,,---,0.00,VWS V14.00,2013-03-30 21:59:00,
2013-03-30 18:00:00,78.7,48.8,30.12,West,261,0.0,6.0,35,0.00,,,0.00,VWS V14.00,2013-03-30 22:00:00,
2013-03-30 18:04:00,77.2,48.9,30.11,WSW,244,0.0,0.0,37,0.00,,---,0.00,VWS V14.00,2013-03-30 22:04:00,
2013-03-30 18:09:00,77.2,49.7,30.11,WSW,244,0.0,0.0,38,0.00,,---,0.00,VWS V14.00,2013-03-30 22:09:00,
2013-03-30 18:14:00,77.2,49.7,30.11,SSW,210,0.0,1.0,38,0.00,,---,0.00,VWS V14.00,2013-03-30 22:14:00,
2013-03-30 18:20:00,77.1,49.6,30.11,SW,232,0.0,1.0,38,0.00,,---,0.00,VWS V14.00,2013-03-30 22:20:00,
2013-03-30 18:25:00,76.9,49.4,30.12,South,190,0.0,1.0,38,0.00,,---,0.00,VWS V14.00,2013-03-30 22:25:00,
2013-03-30 18:30:00,76.7,49.2,30.12,South,176,0.0,1.0,38,0.00,,---,0.00,VWS V14.00,2013-03-30 22:30:00,
2013-03-30 18:35:00,76.6,49.1,30.12,South,176,0.0,0.0,38,0.00,,---,0.00,VWS V14.00,2013-03-30 22:35:00,
2013-03-30 18:40:00,76.5,49.0,30.12,SSW,210,0.0,1.0,38,0.00,,---,0.00,VWS V14.00,2013-03-30 22:40:00,
2013-03-30 18:45:00,76.4,49.6,30.12,SSE,155,0.0,1.0,39,0.00,,---,0.00,VWS V14.00,2013-03-30 22:45:00,
2013-03-30 18:51:00,76.4,48.9,30.12,WSW,246,0.0,5.0,38,0.00,,---,0.00,VWS V14.00,2013-03-30 22:51:00,
2013-03-30 18:56:00,76.3,48.8,30.12,SSW,206,0.0,5.0,38,0.00,,---,0.00,VWS V14.00,2013-03-30 22:56:00,
2013-03-30 19:00:00,76.2,49.5,30.12,SW,217,0.0,5.0,39,0.00,,---,0.00,VWS V14.00,2013-03-30 23:00:00,
2013-03-30 19:01:00,76.2,49.5,30.12,SW,217,0.0,5.0,39,0.00,,---,0.00,VWS V14.00,2013-03-30 23:01:00,
2013-03-30 19:06:00,76.0,49.3,30.12,SW,218,0.0,1.0,39,0.00,,---,0.00,VWS V14.00,2013-03-30 23:06:00,
2013-03-30 19:11:00,75.8,49.1,30.12,South,184,0.0,1.0,39,0.00,,---,0.00,VWS V14.00,2013-03-30 23:11:00,
2013-03-30 19:17:00,75.7,49.7,30.12,South,184,0.0,1.0,40,0.00,,---,0.00,VWS V14.00,2013-03-30 23:17:00,
2013-03-30 19:22:00,75.6,49.6,30.12,South,184,0.0,1.0,40,0.00,,---,0.00,VWS V14.00,2013-03-30 23:22:00,
2013-03-30 19:27:00,75.4,49.4,30.13,South,184,0.0,1.0,40,0.00,,---,0.00,VWS V14.00,2013-03-30 23:27:00,
2013-03-30 19:30:00,75.2,49.2,30.13,South,184,0.0,1.0,40,0.00,,---,0.00,VWS V14.00,2013-03-30 23:30:00,
2013-03-30 19:32:00,75.2,49.2,30.13,South,184,0.0,0.0,40,0.00,,---,0.00,VWS V14.00,2013-03-30 23:32:00,
2013-03-30 19:38:00,75.0,49.1,30.13,SSW,211,0.0,0.0,40,0.00,,---,0.00,VWS V14.00,2013-03-30 23:38:00,
2013-03-30 19:43:00,74.8,49.5,30.13,SSW,211,0.0,0.0,41,0.00,,---,0.00,VWS V14.00,2013-03-30 23:43:00,
2013-03-30 19:48:00,74.6,49.4,30.13,SSW,211,0.0,0.0,41,0.00,,---,0.00,VWS V14.00,2013-03-30 23:48:00,
2013-03-30 19:53:00,74.4,49.8,30.13,SSW,211,0.0,0.0,42,0.00,,---,0.00,VWS V14.00,2013-03-30 23:53:00,
2013-03-30 19:58:00,74.2,50.3,30.13,SSW,211,0.0,0.0,43,0.00,,---,0.00,VWS V14.00,2013-03-30 23:58:00,
2013-03-30 20:00:00,74.1,50.2,30.13,SSW,211,0.0,0.0,43,0.00,,---,0.00,VWS V14.00,2013-03-31 00:00:00,
2013-03-30 20:03:00,74.0,50.1,30.13,SSW,211,0.0,0.0,43,0.00,,---,0.00,VWS V14.00,2013-03-31 00:03:00,
2013-03-30 20:09:00,73.8,50.5,30.13,SSW,211,0.0,0.0,44,0.00,,---,0.00,VWS V14.00,2013-03-31 00:09:00,
2013-03-30 20:14:00,73.5,50.9,30.13,SSW,211,0.0,0.0,45,0.00,,---,0.00,VWS V14.00,2013-03-31 00:14:00,
2013-03-30 20:19:00,73.1,50.5,30.14,SSW,211,0.0,0.0,45,0.00,,---,0.00,VWS V14.00,2013-03-31 00:19:00,
2013-03-30 20:24:00,72.7,50.8,30.15,WSW,254,0.0,0.0,46,0.00,,---,0.00,VWS V14.00,2013-03-31 00:24:00,
2013-03-30 20:30:00,72.1,49.0,30.15,WSW,254,0.0,1.0,44,0.00,,---,0.00,VWS V14.00,2013-03-31 00:30:00,
2013-03-30 20:35:00,71.9,48.8,30.16,SSW,199,0.0,6.0,44,0.00,,---,0.00,VWS V14.00,2013-03-31 00:35:00,
2013-03-30 20:40:00,71.7,49.2,30.16,SSW,200,0.0,6.0,45,0.00,,---,0.00,VWS V14.00,2013-03-31 00:40:00,
2013-03-30 20:45:00,71.3,48.3,30.16,East,84,0.0,6.0,44,0.00,,---,0.00,VWS V14.00,2013-03-31 00:45:00,
2013-03-30 20:50:00,71.1,48.7,30.17,East,84,0.0,6.0,45,0.00,,---,0.00,VWS V14.00,2013-03-31 00:50:00,
2013-03-30 20:55:00,70.6,48.8,30.17,East,84,0.0,6.0,46,0.00,,---,0.00,VWS V14.00,2013-03-31 00:55:00,
2013-03-30 21:00:00,70.3,48.0,30.17,SW,236,0.0,6.0,45,0.00,,---,0.00,VWS V14.00,2013-03-31 01:00:00,
2013-03-30 21:01:00,70.3,48.0,30.17,SW,236,0.0,6.0,45,0.00,,---,0.00,VWS V14.00,2013-03-31 01:01:00,
2013-03-30 21:06:00,70.1,47.8,30.17,SW,236,0.0,1.0,45,0.00,,---,0.00,VWS V14.00,2013-03-31 01:06:00,
2013-03-30 21:12:00,70.0,48.3,30.17,SW,236,0.0,1.0,46,0.00,,---,0.00,VWS V14.00,2013-03-31 01:12:00,
2013-03-30 21:17:00,69.7,48.0,30.17,WSW,242,0.0,1.0,46,0.00,,---,0.00,VWS V14.00,2013-03-31 01:17:00,
2013-03-30 21:22:00,69.4,47.2,30.17,WSW,246,0.0,4.0,45,0.00,,---,0.00,VWS V14.00,2013-03-31 01:22:00,
2013-03-30 21:27:00,69.1,46.9,30.17,WSW,247,0.0,4.0,45,0.00,,---,0.00,VWS V14.00,2013-03-31 01:27:00,
2013-03-30 21:30:00,68.9,46.7,30.18,WSW,247,0.0,4.0,45,0.00,,---,0.00,VWS V14.00,2013-03-31 01:30:00,
2013-03-30 21:33:00,68.8,46.6,30.18,WSW,247,0.0,0.0,45,0.00,,---,0.00,VWS V14.00,2013-03-31 01:33:00,
2013-03-30 21:38:00,68.4,46.8,30.18,WSW,247,0.0,0.0,46,0.00,,---,0.00,VWS V14.00,2013-03-31 01:38:00,
2013-03-30 21:43:00,67.9,47.0,30.18,WSW,247,0.0,0.0,47,0.00,,---,0.00,VWS V14.00,2013-03-31 01:43:00,
2013-03-30 21:48:00,67.2,46.9,30.18,WSW,247,0.0,0.0,48,0.00,,---,0.00,VWS V14.00,2013-03-31 01:48:00,
2013-03-30 21:53:00,66.7,47.0,30.18,WSW,247,0.0,0.0,49,0.00,,---,0.00,VWS V14.00,2013-03-31 01:53:00,
2013-03-30 21:59:00,66.2,47.0,30.19,WSW,247,0.0,0.0,50,0.00,,---,0.00,VWS V14.00,2013-03-31 01:59:00,
2013-03-30 22:00:00,66.0,47.4,30.19,SSW,211,0.0,1.0,51,0.00,,---,0.00,VWS V14.00,2013-03-31 02:00:00,
2013-03-30 22:04:00,66.0,47.4,30.19,SSW,210,0.0,0.0,51,0.00,,---,0.00,VWS V14.00,2013-03-31 02:04:00,
2013-03-30 22:09:00,65.8,47.7,30.19,SSW,211,0.0,0.0,52,0.00,,---,0.00,VWS V14.00,2013-03-31 02:09:00,
2013-03-30 22:14:00,65.6,47.5,30.19,SSW,211,0.0,0.0,52,0.00,,---,0.00,VWS V14.00,2013-03-31 02:14:00,
2013-03-30 22:19:00,65.4,47.8,30.19,SSW,210,0.0,0.0,53,0.00,,---,0.00,VWS V14.00,2013-03-31 02:19:00,
2013-03-30 22:25:00,65.2,47.7,30.19,SSW,210,0.0,0.0,53,0.00,,---,0.00,VWS V14.00,2013-03-31 02:25:00,
2013-03-30 22:30:00,65.1,48.1,30.19,SSW,210,0.0,0.0,54,0.00,,---,0.00,VWS V14.00,2013-03-31 02:30:00,
2013-03-30 22:35:00,64.7,48.2,30.19,SSW,211,0.0,0.0,55,0.00,,---,0.00,VWS V14.00,2013-03-31 02:35:00,
2013-03-30 22:40:00,64.3,48.3,30.19,SSW,211,0.0,0.0,56,0.00,,---,0.00,VWS V14.00,2013-03-31 02:40:00,
2013-03-30 22:45:00,63.8,48.3,30.20,SSW,211,0.0,0.0,57,0.00,,---,0.00,VWS V14.00,2013-03-31 02:45:00,
2013-03-30 22:50:00,63.3,48.3,30.19,SSW,211,0.0,0.0,58,0.00,,---,0.00,VWS V14.00,2013-03-31 02:50:00,
2013-03-30 22:55:00,62.9,47.9,30.19,SSW,211,0.0,0.0,58,0.00,,---,0.00,VWS V14.00,2013-03-31 02:55:00,
2013-03-30 23:00:00,62.5,48.0,30.19,SSW,210,0.0,0.0,59,0.00,,---,0.00,VWS V14.00,2013-03-31 03:00:00,
2013-03-30 23:01:00,62.5,48.0,30.19,SSW,210,0.0,0.0,59,0.00,,---,0.00,VWS V14.00,2013-03-31 03:01:00,
2013-03-30 23:06:00,62.3,48.2,30.19,SSW,211,0.0,0.0,60,0.00,,---,0.00,VWS V14.00,2013-03-31 03:06:00,
2013-03-30 23:12:00,62.1,48.1,30.19,SSW,210,0.0,0.0,60,0.00,,---,0.00,VWS V14.00,2013-03-31 03:12:00,
2013-03-30 23:17:00,61.9,48.3,30.19,SSW,210,0.0,0.0,61,0.00,,---,0.00,VWS V14.00,2013-03-31 03:17:00,
2013-03-30 23:22:00,61.7,48.6,30.19,SSW,211,0.0,0.0,62,0.00,,---,0.00,VWS V14.00,2013-03-31 03:22:00,
2013-03-30 23:27:00,61.5,48.4,30.19,SSW,211,0.0,0.0,62,0.00,,---,0.00,VWS V14.00,2013-03-31 03:27:00,
2013-03-30 23:30:00,61.4,48.7,30.19,SSW,210,0.0,0.0,63,0.00,,---,0.00,VWS V14.00,2013-03-31 03:30:00,
2013-03-30 23:32:00,61.4,48.7,30.18,SSW,211,0.0,0.0,63,0.00,,---,0.00,VWS V14.00,2013-03-31 03:32:00,
2013-03-30 23:38:00,61.2,48.5,30.18,SSW,211,0.0,0.0,63,0.00,,---,0.00,VWS V14.00,2013-03-31 03:38:00,
2013-03-30 23:43:00,61.1,48.8,30.18,SSW,211,0.0,0.0,64,0.00,,---,0.00,VWS V14.00,2013-03-31 03:43:00,
2013-03-30 23:48:00,61.0,49.2,30.18,SSW,211,0.0,0.0,65,0.00,,---,0.00,VWS V14.00,2013-03-31 03:48:00,
2013-03-30 23:53:00,60.9,49.1,30.18,SSW,211,0.0,0.0,65,0.00,,---,0.00,VWS V14.00,2013-03-31 03:53:00,
2013-03-30 23:59:00,60.8,49.4,30.18,SSW,210,0.0,0.0,66,0.00,,---,0.00,VWS V14.00,2013-03-31 03:59:00,